[[{"header":{"parameterUnit":"m.s-1","parameterCategory":1,"la1":30.2991,"la2":30.254,"lo1":-89.0895,"lo2":-89.0444,"dy":0.0017,"dx":0.0017,"nx":28,"ny":28,"refTime":"2024-08-10T03:00:00:Z","depth":0,"parameterNumber":2,"parameterNumberName":"U-component_of_WINDS"},"data":[0,0,0,0,0,0,0,0,0,0,0,0,0,0,0,0,0,0,0,0,0,0,0,0,0,0,0,0,0,0,0,0,0,0,0,0,0,0,0,0,0,0,0,0,0,0,0,0,0,0,0,0,0,0,0,0,0,0,-0.0633,-0.0633,0,-0.0674,-0.0674,-0.0675,-0.0666,-0.0665,-0.0664,-0.0664,-0.0708,-0.071,-0.0712,0,0,0,0,0,0,0,0,0,0,0,0,0,-0.0548,-0.0549,-0.0633,-0.0633,-0.0634,-0.0674,-0.0674,-0.0675,-0.0666,-0.0665,-0.0664,-0.0663,-0.0707,-0.0709,-0.0712,0,0,0,0,0,0,0,0,0,0,0,0,0,-0.0586,-0.055,-0.0633,-0.0634,-0.0635,-0.0674,-0.0674,-0.0675,-0.0666,-0.0665,-0.0664,-0.0663,-0.0706,-0.0709,-0.0712,-0.0753,0,0,-0.0721,-0.0722,0,0,0,0,0,0,0,0,-0.0584,-0.0589,-0.0633,-0.0634,-0.0635,-0.0664,-0.0661,-0.0701,-0.0667,-0.0654,-0.0664,-0.0662,-0.0694,-0.0698,-0.0708,-0.0755,-0.0757,-0.0721,-0.0723,-0.0724,-0.0725,0,0,0,0,0,0,0,-0.0581,-0.0588,-0.0649,-0.0634,-0.0635,-0.0633,-0.0637,-0.0668,-0.068,-0.0655,-0.0655,-0.066,-0.0694,-0.0706,-0.0709,-0.0758,-0.0721,-0.0723,-0.0725,-0.0726,-0.084,-0.0841,0,0,0,0,0,0,-0.0578,-0.0585,-0.0648,-0.065,-0.0606,-0.0636,-0.064,-0.0656,-0.068,-0.0683,-0.0661,-0.0659,-0.0701,-0.0706,-0.0711,-0.0761,-0.0724,-0.0727,-0.0728,-0.0839,-0.084,-0.0842,0,0,0,0,0,0,-0.0576,-0.0584,-0.0646,-0.0618,-0.0626,-0.0638,-0.0655,-0.0657,-0.0668,-0.0684,-0.0686,-0.067,-0.0701,-0.0707,-0.0742,-0.0762,-0.0728,-0.073,-0.0837,-0.0839,-0.0841,-0.0861,0,0,0,0,0,0,-0.0574,-0.0583,-0.0599,-0.0618,-0.0627,-0.0677,-0.0657,-0.0659,-0.0673,-0.0671,-0.0693,-0.0696,-0.07,-0.0738,-0.0745,-0.0766,-0.0733,-0.0835,-0.0838,-0.084,-0.0859,-0.0863,-0.0867,0,0,0,0,0,-0.0571,-0.0603,-0.0599,-0.0607,-0.0647,-0.0678,-0.0683,-0.0687,-0.0674,-0.0691,-0.07,-0.0695,-0.0758,-0.0742,-0.075,-0.0771,-0.0834,-0.0837,-0.084,-0.0857,-0.0862,-0.0867,0,0,0,0,0,0,-0.0587,-0.0606,-0.0602,-0.0641,-0.0658,-0.0676,-0.0697,-0.0693,-0.0714,-0.0712,-0.0716,-0.0721,-0.0758,-0.0768,-0.0749,-0.0812,-0.0795,-0.0799,-0.0805,-0.081,-0.0814,-0.0812,-0.0735,0,0,0,0,0,-0.0594,-0.0618,-0.0633,-0.0667,-0.0675,-0.0684,-0.0698,-0.0699,-0.0717,-0.0725,-0.0737,-0.0755,-0.0779,-0.0795,-0.0818,-0.0859,-0.0864,-0.0878,-0.0882,-0.0886,-0.089,-0.0913,-0.092,-0.0851,-0.0851,-0.0851,0,0,-0.0611,-0.0625,-0.0639,-0.067,-0.0683,-0.0708,-0.0691,-0.0717,-0.0736,-0.0729,-0.0763,-0.0773,-0.0793,-0.0832,-0.085,-0.0842,-0.091,-0.0889,-0.0892,-0.0895,-0.0917,-0.0923,-0.0929,-0.0853,-0.0853,-0.0853,0,0,-0.0655,-0.0667,-0.0696,-0.0709,-0.0729,-0.0735,-0.0742,-0.076,-0.0766,-0.0801,-0.0796,-0.0818,-0.0859,-0.0873,-0.0886,-0.0934,-0.093,-0.0941,-0.0965,-0.0987,-0.0993,-0.0998,-0.1016,-0.1022,-0.0945,-0.0945,-0.0945,0,-0.0674,-0.0711,-0.0712,-0.0739,-0.0753,-0.0746,-0.0776,-0.0789,-0.0815,-0.0825,-0.0815,-0.0866,-0.0879,-0.0922,-0.0933,-0.0943,-0.0952,-0.094,-0.0992,-0.0996,-0.1001,-0.1018,-0.1025,-0.0947,-0.0946,-0.0946,-0.0946,0,-0.0733,-0.0758,-0.078,-0.0805,-0.0821,-0.0849,-0.0855,-0.0871,-0.087,-0.0877,-0.0912,-0.0927,-0.0953,-0.0963,-0.0963,-0.1005,-0.1,-0.099,-0.0973,-0.1009,-0.1025,-0.1032,-0.0948,-0.0948,-0.0948,-0.0947,0,0,-0.079,-0.0814,-0.0822,-0.0834,-0.0854,-0.0874,-0.0901,-0.0926,-0.094,-0.0958,-0.0982,-0.1016,-0.1007,-0.1022,-0.1023,-0.1042,-0.108,-0.1031,-0.1031,-0.1041,-0.1128,-0.1136,-0.1144,-0.1076,-0.1078,-0.1079,-0.1127,0,-0.0837,-0.0886,-0.0887,-0.0932,-0.0956,-0.0949,-0.0973,-0.0989,-0.0995,-0.1016,-0.1024,-0.1048,-0.1035,-0.1043,-0.1062,-0.1071,-0.1098,-0.1068,-0.11,-0.1101,-0.1097,-0.1152,-0.1161,-0.1206,-0.1133,-0.1134,-0.1135,0,-0.0899,-0.0918,-0.0965,-0.0981,-0.0991,-0.1013,-0.1035,-0.1055,-0.1072,-0.1076,-0.1091,-0.1089,-0.1118,-0.1098,-0.1138,-0.1118,-0.113,-0.1137,-0.1139,-0.1143,-0.1122,-0.116,-0.122,-0.1228,-0.1145,-0.1144,-0.1143,0,-0.0937,-0.0974,-0.1007,-0.1017,-0.1037,-0.1052,-0.1061,-0.1077,-0.1091,-0.1111,-0.112,-0.1142,-0.1155,-0.1173,-0.1177,-0.1162,-0.1217,-0.1198,-0.1222,-0.1222,-0.1236,-0.1235,-0.1301,-0.1241,-0.1241,-0.1241,-0.1241,0,-0.099,-0.102,-0.1025,-0.1046,-0.1078,-0.1079,-0.1112,-0.1119,-0.1133,-0.1155,-0.115,-0.1171,-0.1175,-0.1196,-0.12,-0.1233,-0.1238,-0.1242,-0.1243,-0.1244,-0.1244,-0.1254,-0.1252,-0.1243,-0.1242,-0.1242,-0.1242,0,-0.104,-0.1044,-0.108,-0.1095,-0.11,-0.1123,-0.1136,-0.1156,-0.1161,-0.1189,-0.1196,-0.1205,-0.123,-0.1235,-0.1265,-0.1267,-0.1307,-0.1304,-0.1301,-0.1302,-0.1326,-0.1324,-0.1402,-0.1413,-0.1344,-0.1345,-0.1346,0,-0.1075,-0.1097,-0.1114,-0.1128,-0.1138,-0.1161,-0.1175,-0.1176,-0.1191,-0.1212,-0.1229,-0.1253,-0.1273,-0.1314,-0.1323,-0.1346,-0.1345,-0.137,-0.1348,-0.1348,-0.1347,-0.1346,-0.1349,-0.1375,-0.1376,-0.1376,-0.1377,0,-0.1136,-0.1137,-0.1157,-0.1178,-0.1195,-0.1212,-0.1228,-0.124,-0.1244,-0.1261,-0.1286,-0.1302,-0.1332,-0.1356,-0.1379,-0.1388,-0.1384,-0.1383,-0.139,-0.1392,-0.139,-0.1393,-0.1315,-0.1382,-0.1382,-0.1381,-0.1381,-0.1381,-0.118,-0.12,-0.1215,-0.1238,-0.1249,-0.1264,-0.1284,-0.1291,-0.1312,-0.1336,-0.1335,-0.1363,-0.1379,-0.1408,-0.1419,-0.1441,-0.1433,-0.1443,-0.1446,-0.1449,-0.1452,-0.1385,-0.1445,-0.1445,-0.1445,-0.1445,-0.1444,0,-0.1242,-0.1251,-0.1272,-0.1294,-0.1312,-0.1304,-0.1321,-0.1337,-0.1362,-0.1376,-0.1396,-0.1425,-0.1448,-0.1458,-0.1481,-0.1497,-0.1495,-0.1503,-0.1503,-0.1506,-0.1457,-0.1449,-0.1504,-0.1504,-0.1504,-0.1504,-0.1504,-0.1504,-0.1277,-0.131,-0.1312,-0.1351,-0.1359,-0.1386,-0.1397,-0.141,-0.1422,-0.1455,-0.1474,-0.148,-0.1493,-0.1516,-0.1537,-0.154,-0.1549,-0.1559,-0.156,-0.1515,-0.1509,-0.1503,-0.1496,-0.156,-0.156,-0.1607,-0.1608,-0.1608]},{"header":{"parameterUnit":"m.s-1","parameterCategory":1,"la1":30.2991,"la2":30.254,"lo1":-89.0895,"lo2":-89.0444,"dy":0.0017,"dx":0.0017,"nx":28,"ny":28,"refTime":"2024-08-10T03:00:00:Z","depth":0,"parameterNumber":3,"parameterNumberName":"V-component_of_WINDS"},"data":[0,0,0,0,0,0,0,0,0,0,0,0,0,0,0,0,0,0,0,0,0,0,0,0,0,0,0,0,0,0,0,0,0,0,0,0,0,0,0,0,0,0,0,0,0,0,0,0,0,0,0,0,0,0,0,0,0,0,-4.6797,-4.6798,0,-4.6876,-4.6877,-4.6878,-4.6798,-4.6795,-4.6792,-4.6789,-4.6867,-4.6872,-4.6876,0,0,0,0,0,0,0,0,0,0,0,0,0,-4.6574,-4.6578,-4.6797,-4.6798,-4.6799,-4.6876,-4.6877,-4.6878,-4.6799,-4.6795,-4.6791,-4.6788,-4.6865,-4.6871,-4.6877,0,0,0,0,0,0,0,0,0,0,0,0,0,-4.6664,-4.658,-4.6797,-4.6769,-4.6767,-4.6876,-4.6877,-4.6879,-4.68,-4.6795,-4.679,-4.6786,-4.6863,-4.687,-4.6878,-4.7017,0,0,-4.6901,-4.6904,0,0,0,0,0,0,0,0,-4.6659,-4.6672,-4.6772,-4.6771,-4.6769,-4.6823,-4.6827,-4.6925,-4.6801,-4.6787,-4.6789,-4.6784,-4.6856,-4.6863,-4.6888,-4.7021,-4.7024,-4.6901,-4.6906,-4.6909,-4.6911,0,0,0,0,0,0,0,-4.6653,-4.6668,-4.6828,-4.6774,-4.6772,-4.6751,-4.6759,-4.6845,-4.6846,-4.6788,-4.6782,-4.6793,-4.6854,-4.6881,-4.689,-4.7025,-4.6901,-4.6908,-4.6912,-4.6915,-4.7276,-4.7281,0,0,0,0,0,0,-4.665,-4.6663,-4.6826,-4.6831,-4.6701,-4.6759,-4.6767,-4.681,-4.6845,-4.6846,-4.6797,-4.6789,-4.6871,-4.6881,-4.6892,-4.7058,-4.6909,-4.6916,-4.692,-4.7271,-4.7277,-4.7283,0,0,0,0,0,0,-4.6645,-4.6665,-4.6823,-4.6746,-4.6764,-4.6768,-4.6816,-4.6814,-4.6842,-4.6852,-4.6852,-4.6825,-4.6868,-4.6882,-4.6987,-4.706,-4.6919,-4.6926,-4.7265,-4.7273,-4.728,-4.7391,0,0,0,0,0,0,-4.6639,-4.6664,-4.6718,-4.6748,-4.6769,-4.6918,-4.6821,-4.6819,-4.6855,-4.6845,-4.6878,-4.6879,-4.6865,-4.6976,-4.6994,-4.7067,-4.6932,-4.7258,-4.7268,-4.7277,-4.7381,-4.7401,-4.7419,0,0,0,0,0,-4.6632,-4.6745,-4.6721,-4.6741,-4.6836,-4.6922,-4.6934,-4.6916,-4.6861,-4.6915,-4.6922,-4.6878,-4.7049,-4.6988,-4.7007,-4.7084,-4.7254,-4.7266,-4.7277,-4.7372,-4.7397,-4.7419,0,0,0,0,0,0,-4.6723,-4.6749,-4.6722,-4.6849,-4.6884,-4.6908,-4.6976,-4.6943,-4.6994,-4.6983,-4.6957,-4.6965,-4.7077,-4.709,-4.7022,-4.722,-4.7142,-4.7158,-4.7208,-4.7232,-4.7251,-4.7245,-4.6938,0,0,0,0,0,-4.6758,-4.6827,-4.6845,-4.6955,-4.6974,-4.6972,-4.7009,-4.6992,-4.7027,-4.7041,-4.7055,-4.709,-4.7151,-4.7192,-4.7249,-4.7382,-4.7388,-4.7444,-4.7463,-4.7479,-4.7493,-4.7565,-4.759,-4.732,-4.732,-4.732,0,0,-4.6831,-4.6854,-4.6898,-4.6974,-4.6999,-4.707,-4.6985,-4.7063,-4.7115,-4.7052,-4.7154,-4.7165,-4.7202,-4.7322,-4.7376,-4.7337,-4.7569,-4.7493,-4.7506,-4.7512,-4.7579,-4.7605,-4.7627,-4.7328,-4.7327,-4.7326,0,0,-4.7,-4.7024,-4.7119,-4.7146,-4.7186,-4.7184,-4.7207,-4.7236,-4.7242,-4.7343,-4.7297,-4.7358,-4.7464,-4.7492,-4.752,-4.77,-4.7662,-4.7719,-4.782,-4.789,-4.7911,-4.793,-4.7994,-4.8018,-4.7733,-4.7734,-4.7734,0,-4.7086,-4.7192,-4.7171,-4.7254,-4.7288,-4.7235,-4.7331,-4.7357,-4.7413,-4.7438,-4.7394,-4.7526,-4.7547,-4.7673,-4.7717,-4.7741,-4.7766,-4.7716,-4.791,-4.7928,-4.7945,-4.8007,-4.8031,-4.774,-4.774,-4.7739,-4.7738,0,-4.7295,-4.7369,-4.744,-4.7497,-4.754,-4.7628,-4.762,-4.7665,-4.7644,-4.7647,-4.775,-4.7773,-4.7834,-4.7862,-4.7843,-4.7986,-4.7961,-4.7914,-4.7834,-4.7978,-4.8035,-4.8059,-4.775,-4.7748,-4.7746,-4.7744,0,0,-4.7525,-4.7569,-4.7596,-4.7621,-4.7661,-4.7717,-4.7803,-4.7863,-4.7903,-4.7942,-4.8013,-4.8104,-4.8061,-4.8093,-4.8076,-4.8137,-4.8279,-4.8082,-4.8083,-4.8118,-4.8438,-4.8474,-4.8501,-4.8253,-4.8258,-4.8261,-4.8435,0,-4.7695,-4.7845,-4.7829,-4.7972,-4.804,-4.7991,-4.8065,-4.8097,-4.8101,-4.8158,-4.8162,-4.8227,-4.8165,-4.8184,-4.8243,-4.8249,-4.8343,-4.8236,-4.8318,-4.8322,-4.8312,-4.8531,-4.8569,-4.8732,-4.8457,-4.8461,-4.8464,0,-4.7915,-4.7965,-4.8114,-4.8144,-4.8172,-4.8239,-4.8294,-4.8349,-4.8384,-4.8383,-4.8419,-4.8391,-4.8476,-4.8394,-4.851,-4.8439,-4.8471,-4.8479,-4.8485,-4.8492,-4.8402,-4.8545,-4.8784,-4.8809,-4.8499,-4.8496,-4.8493,0,-4.8068,-4.8172,-4.8275,-4.8298,-4.8335,-4.8384,-4.8401,-4.8431,-4.8469,-4.8516,-4.854,-4.8595,-4.8626,-4.8669,-4.8657,-4.8599,-4.8776,-4.8693,-4.8777,-4.8777,-4.8817,-4.8815,-4.9065,-4.8837,-4.8836,-4.8836,-4.8835,0,-4.8261,-4.8355,-4.8345,-4.8408,-4.8511,-4.8491,-4.8594,-4.8605,-4.8632,-4.8696,-4.8656,-4.8716,-4.8696,-4.8755,-4.8745,-4.8843,-4.8857,-4.8858,-4.8854,-4.8862,-4.8862,-4.8883,-4.8872,-4.8842,-4.8841,-4.884,-4.8839,0,-4.8451,-4.8448,-4.8557,-4.8583,-4.8592,-4.8667,-4.8689,-4.8748,-4.8749,-4.883,-4.8848,-4.8849,-4.8917,-4.8909,-4.8984,-4.8977,-4.9099,-4.9081,-4.9088,-4.9084,-4.9168,-4.9161,-4.9442,-4.9477,-4.9225,-4.9228,-4.923,0,-4.8575,-4.8646,-4.868,-4.8721,-4.8742,-4.8808,-4.8846,-4.8829,-4.887,-4.8915,-4.8969,-4.9033,-4.9084,-4.9194,-4.9201,-4.9258,-4.9241,-4.9336,-4.925,-4.9255,-4.9244,-4.924,-4.9247,-4.9353,-4.9356,-4.9358,-4.936,0,-4.8795,-4.879,-4.8848,-4.8905,-4.8953,-4.8997,-4.9036,-4.9072,-4.9058,-4.9106,-4.9175,-4.9215,-4.9292,-4.9356,-4.941,-4.9426,-4.9391,-4.9387,-4.941,-4.9419,-4.942,-4.9421,-4.9135,-4.9381,-4.9379,-4.9377,-4.9376,-4.9375,-4.8956,-4.9017,-4.9051,-4.9116,-4.9145,-4.9183,-4.924,-4.9249,-4.9307,-4.9369,-4.9355,-4.9433,-4.9465,-4.9534,-4.9556,-4.9616,-4.9582,-4.9614,-4.9622,-4.9631,-4.9641,-4.941,-4.9626,-4.9625,-4.9624,-4.9624,-4.9624,0,-4.9175,-4.9194,-4.9255,-4.9312,-4.9364,-4.9327,-4.9369,-4.9415,-4.9485,-4.9518,-4.9569,-4.9649,-4.971,-4.9722,-4.9781,-4.9827,-4.9812,-4.9843,-4.984,-4.9844,-4.9668,-4.9643,-4.9854,-4.9854,-4.9854,-4.9854,-4.9854,-4.9854,-4.9295,-4.9397,-4.9396,-4.951,-4.9529,-4.9606,-4.9634,-4.9668,-4.9695,-4.9786,-4.9838,-4.9846,-4.987,-4.9931,-4.9986,-4.9987,-5.0011,-5.0048,-5.0044,-4.9879,-4.9856,-4.9835,-4.9811,-5.0053,-5.0054,-5.0215,-5.0216,-5.0217]}]]